Location: Crayja
(6.2254°N, 10.6273°W)
Time: 06:32:41
(UTC+00:00)

PSLV R/B - Pass Details

Date: 17 February 2020
Orbit: 505 x 578 km, 97.8° (Epoch: 07 April)

Event Time Altitude Azimuth Distance (km) Brightness Sun altitude
Rises 05:34:23 0° 9° (N) 2,636 7.3 -21.3°
Reaches altitude 10° 05:36:27 10° 8° (N) 1,760 6.4 -20.8°
Maximum altitude 05:40:15 80° 282° (WNW) 545 3.6 -19.9°
Drops below altitude 10° 05:44:09 10° 195° (SSW) 1,807 6.4 -19.0°
Sets 05:46:18 0° 193° (SSW) 2,714 7.3 -18.4°
